Location: Home AU
(51.1382°N, 13.5726°E)
Time: 03:43:06
(UTC+02:00)

ISS - Pass Details

Date: 09 January 2018
Orbit: 401 x 409 km, 51.6° (Epoch: 20 August)

Event Time Altitude Azimuth Distance (km) Brightness Sun altitude
Exits shadow 06:00:15 69° 250° (WSW) 456 -3.9 -18.9°
Maximum altitude 06:00:34 77° 196° (SSW) 437 -3.8 -18.9°
Drops below altitude 10° 06:03:57 10° 109° (ESE) 1,512 0.3 -18.4°
Enters shadow 06:57:06 -74° 302° (WNW) 12,680 3.7 -10.4°
